[[{"header":{"parameterUnit":"m.s-1","parameterCategory":1,"la1":30.2991,"la2":30.254,"lo1":-89.0895,"lo2":-89.0444,"dy":0.0017,"dx":0.0017,"nx":28,"ny":28,"refTime":"2025-07-15T09:00:00:Z","depth":0,"parameterNumber":2,"parameterNumberName":"U-component_of_WINDS"},"data":[0,0,0,0,0,0,0,0,0,0,0,0,0,0,0,0,0,0,0,0,0,0,0,0,0,0,0,0,0,0,0,0,0,0,0,0,0,0,0,0,0,0,0,0,0,0,0,0,0,0,0,0,0,0,0,0,0,0,1.2089,1.2089,0,1.2048,1.2048,1.2047,1.2018,1.2018,1.2018,1.2018,1.1975,1.1974,1.1973,0,0,0,0,0,0,0,0,0,0,0,0,0,1.2144,1.2143,1.2089,1.2089,1.2088,1.2048,1.2047,1.2047,1.2018,1.2018,1.2018,1.2018,1.1975,1.1974,1.1973,0,0,0,0,0,0,0,0,0,0,0,0,0,1.2113,1.2143,1.2089,1.2069,1.2067,1.2048,1.2047,1.2047,1.2019,1.2018,1.2018,1.2018,1.1976,1.1974,1.1973,1.1971,0,0,1.1969,1.1968,0,0,0,0,0,0,0,0,1.2115,1.2111,1.2073,1.2071,1.2068,1.2038,1.2051,1.2021,1.2019,1.2037,1.2018,1.2017,1.1996,1.1993,1.1986,1.1969,1.1967,1.1969,1.1968,1.1967,1.1967,0,0,0,0,0,0,0,1.2117,1.2113,1.2073,1.2072,1.2069,1.2062,1.2058,1.2045,1.2019,1.2035,1.2033,1.2029,1.1995,1.1987,1.1985,1.1966,1.1969,1.1967,1.1966,1.1966,1.1946,1.1947,0,0,0,0,0,0,1.2122,1.2115,1.2074,1.2072,1.2091,1.2062,1.2056,1.2048,1.2019,1.2014,1.2029,1.2027,1.199,1.1987,1.1983,1.1979,1.1967,1.1966,1.1965,1.1946,1.1946,1.1947,0,0,0,0,0,0,1.2124,1.2119,1.2076,1.2093,1.2087,1.2061,1.2052,1.2047,1.204,1.2014,1.2009,1.2026,1.199,1.1985,1.1974,1.1977,1.1965,1.1964,1.1946,1.1946,1.1946,1.1971,0,0,0,0,0,0,1.2125,1.212,1.2118,1.2093,1.2086,1.2068,1.2052,1.2047,1.2038,1.2035,1.201,1.2006,1.1989,1.1977,1.1973,1.1975,1.1963,1.1945,1.1946,1.1946,1.197,1.1972,1.1975,0,0,0,0,0,1.2127,1.2127,1.2118,1.2114,1.2084,1.2068,1.2064,1.2045,1.2038,1.2037,1.202,1.2007,1.1978,1.1976,1.1971,1.1973,1.1945,1.1946,1.1946,1.1969,1.1972,1.1974,0,0,0,0,0,0,1.2153,1.2123,1.2113,1.2104,1.2089,1.2063,1.206,1.2048,1.2034,1.2033,1.2009,1.2004,1.1996,1.1983,1.1982,1.197,1.196,1.196,1.1978,1.1981,1.1983,1.1986,1.1962,0,0,0,0,0,1.2157,1.2147,1.2121,1.2116,1.2109,1.2086,1.2078,1.2065,1.2048,1.2041,1.2024,1.2008,1.1996,1.1988,1.1975,1.1968,1.1963,1.1968,1.197,1.1972,1.1972,1.1969,1.1971,1.1949,1.1949,1.1949,0,0,1.2166,1.2149,1.2143,1.212,1.2107,1.2097,1.2081,1.207,1.2063,1.204,1.2029,1.2016,1.1996,1.1988,1.1983,1.1977,1.1977,1.1973,1.1975,1.1973,1.1969,1.1972,1.1973,1.195,1.1949,1.1949,0,0,1.2178,1.2163,1.2157,1.2145,1.2125,1.211,1.2109,1.2085,1.2076,1.2064,1.2047,1.2038,1.2016,1.2004,1.1994,1.2003,1.199,1.1999,1.2011,1.2008,1.201,1.2011,1.2014,1.2016,1.2,1.2,1.2,0,1.2191,1.2176,1.2156,1.2147,1.2138,1.2117,1.2111,1.21,1.2077,1.2071,1.2065,1.2038,1.2023,1.2012,1.2015,1.2008,1.2006,1.2002,1.2011,1.2012,1.2013,1.2016,1.2018,1.2001,1.2001,1.2001,1.2,0,1.2194,1.2183,1.2181,1.216,1.215,1.2143,1.2123,1.2115,1.2103,1.209,1.2079,1.2061,1.2044,1.2041,1.2029,1.2028,1.2025,1.2015,1.2004,1.2017,1.2019,1.202,1.2003,1.2002,1.2002,1.2002,0,0,1.2219,1.2188,1.2187,1.2178,1.2155,1.2146,1.2139,1.2123,1.2118,1.2103,1.2096,1.2079,1.207,1.206,1.2046,1.2044,1.2052,1.2034,1.2033,1.2038,1.2051,1.2059,1.206,1.2044,1.2044,1.2044,1.2053,0,1.2227,1.2212,1.2195,1.2186,1.2176,1.2157,1.215,1.2136,1.2123,1.2113,1.2099,1.2088,1.2077,1.2071,1.2067,1.2052,1.2055,1.2051,1.2037,1.2037,1.2043,1.2062,1.2069,1.2078,1.2054,1.2054,1.2054,0,1.2234,1.2221,1.2211,1.219,1.2185,1.218,1.2164,1.2155,1.2139,1.213,1.2119,1.2105,1.2096,1.2087,1.2075,1.2073,1.2067,1.2059,1.2059,1.2056,1.2046,1.206,1.2081,1.2082,1.2055,1.2055,1.2055,0,1.2254,1.2233,1.2225,1.2218,1.2193,1.2189,1.2179,1.2162,1.2154,1.2141,1.2136,1.2122,1.2114,1.2104,1.2086,1.2081,1.2077,1.2066,1.2069,1.207,1.2068,1.2069,1.2088,1.2065,1.2065,1.2065,1.2065,0,1.2264,1.2259,1.2234,1.2229,1.2223,1.2203,1.2198,1.2186,1.2171,1.2164,1.2147,1.214,1.2118,1.2109,1.2095,1.2088,1.2084,1.2077,1.2073,1.2078,1.2079,1.2073,1.2072,1.2065,1.2065,1.2065,1.2065,0,1.2285,1.2268,1.2257,1.2235,1.223,1.2226,1.2208,1.2202,1.2189,1.218,1.2177,1.2156,1.2144,1.2126,1.2109,1.21,1.2095,1.2089,1.2101,1.2099,1.2103,1.2103,1.212,1.2121,1.2097,1.2097,1.2097,0,1.2293,1.2288,1.2266,1.226,1.2251,1.2241,1.2233,1.2214,1.2207,1.2188,1.2185,1.2173,1.2162,1.2144,1.2128,1.2115,1.2109,1.2115,1.2106,1.2112,1.2109,1.2109,1.2109,1.2117,1.2118,1.2118,1.2118,0,1.2309,1.2301,1.229,1.2277,1.2268,1.2256,1.2244,1.224,1.2218,1.2211,1.2199,1.2191,1.2174,1.2162,1.2147,1.2136,1.2124,1.2121,1.2121,1.2126,1.2133,1.213,1.2106,1.2121,1.2121,1.212,1.212,1.212,1.2323,1.2319,1.2303,1.2292,1.2281,1.227,1.2264,1.2251,1.2241,1.2226,1.2215,1.2205,1.2189,1.2168,1.2158,1.215,1.2144,1.2144,1.2144,1.2145,1.2147,1.2135,1.2147,1.2147,1.2147,1.2147,1.2147,0,1.2338,1.2328,1.2318,1.2301,1.2293,1.2282,1.2269,1.2262,1.2253,1.224,1.223,1.2217,1.2205,1.2188,1.2175,1.2172,1.2166,1.2169,1.2169,1.2167,1.2152,1.2154,1.2174,1.2174,1.2174,1.2174,1.2174,1.2174,1.2345,1.2338,1.2328,1.2315,1.2304,1.2294,1.2287,1.2277,1.2267,1.2253,1.2244,1.2233,1.2218,1.2205,1.2194,1.2189,1.2185,1.2191,1.2184,1.2171,1.2168,1.2166,1.2167,1.219,1.219,1.22,1.22,1.22]},{"header":{"parameterUnit":"m.s-1","parameterCategory":1,"la1":30.2991,"la2":30.254,"lo1":-89.0895,"lo2":-89.0444,"dy":0.0017,"dx":0.0017,"nx":28,"ny":28,"refTime":"2025-07-15T09:00:00:Z","depth":0,"parameterNumber":3,"parameterNumberName":"V-component_of_WINDS"},"data":[0,0,0,0,0,0,0,0,0,0,0,0,0,0,0,0,0,0,0,0,0,0,0,0,0,0,0,0,0,0,0,0,0,0,0,0,0,0,0,0,0,0,0,0,0,0,0,0,0,0,0,0,0,0,0,0,0,0,-2.9722,-2.9723,0,-2.9807,-2.9808,-2.9809,-2.9821,-2.9821,-2.982,-2.9819,-2.9906,-2.9909,-2.9912,0,0,0,0,0,0,0,0,0,0,0,0,0,-2.9571,-2.9574,-2.9722,-2.9723,-2.9724,-2.9807,-2.9808,-2.9809,-2.9822,-2.9821,-2.982,-2.9819,-2.9905,-2.9909,-2.9912,0,0,0,0,0,0,0,0,0,0,0,0,0,-2.9644,-2.9574,-2.9721,-2.974,-2.9742,-2.9806,-2.9808,-2.9809,-2.9822,-2.9821,-2.9819,-2.9818,-2.9904,-2.9908,-2.9913,-2.9964,0,0,-2.9927,-2.9929,0,0,0,0,0,0,0,0,-2.964,-2.965,-2.9736,-2.9739,-2.9742,-2.9802,-2.9787,-2.9861,-2.9822,-2.9792,-2.9819,-2.9818,-2.9873,-2.988,-2.9898,-2.9968,-2.9972,-2.9927,-2.993,-2.9932,-2.9933,0,0,0,0,0,0,0,-2.9635,-2.9646,-2.9755,-2.9737,-2.9741,-2.9744,-2.9754,-2.9801,-2.9838,-2.9794,-2.9795,-2.9805,-2.9874,-2.9894,-2.99,-2.9973,-2.9927,-2.9931,-2.9934,-2.9936,-3.0093,-3.0094,0,0,0,0,0,0,-2.9626,-2.9642,-2.9753,-2.9758,-2.9687,-2.9748,-2.9758,-2.9784,-2.9837,-2.9844,-2.9806,-2.9806,-2.9887,-2.9895,-2.9903,-2.9969,-2.9932,-2.9936,-2.9939,-3.0091,-3.0093,-3.0095,0,0,0,0,0,0,-2.9623,-2.9636,-2.9749,-2.97,-2.9715,-2.9752,-2.9781,-2.9786,-2.9806,-2.9846,-2.9853,-2.982,-2.9886,-2.9897,-2.995,-2.9972,-2.9938,-2.9942,-3.009,-3.0092,-3.0094,-3.01,0,0,0,0,0,0,-2.9619,-2.9635,-2.9654,-2.9701,-2.9717,-2.9794,-2.9782,-2.9789,-2.9814,-2.9814,-2.9861,-2.9867,-2.9886,-2.9943,-2.9954,-2.9978,-2.9946,-3.0088,-3.0091,-3.0093,-3.0098,-3.0102,-3.0105,0,0,0,0,0,-2.9613,-2.9652,-2.9655,-2.9669,-2.9743,-2.9795,-2.9805,-2.9825,-2.9816,-2.9836,-2.9862,-2.9866,-2.9968,-2.9948,-2.9961,-2.9987,-3.0087,-3.009,-3.0093,-3.0096,-3.0101,-3.0105,0,0,0,0,0,0,-2.9607,-2.9658,-2.9663,-2.9717,-2.9752,-2.9797,-2.9823,-2.983,-2.9867,-2.9866,-2.989,-2.99,-2.9953,-2.9974,-2.9952,-3.004,-3.0026,-3.0032,-3.0024,-3.0029,-3.0033,-3.0027,-2.995,0,0,0,0,0,-2.9612,-2.965,-2.9693,-2.9737,-2.9754,-2.9786,-2.9809,-2.9822,-2.9859,-2.9874,-2.9903,-2.9939,-2.9979,-3.0005,-3.0044,-3.0101,-3.0112,-3.0125,-3.0128,-3.0131,-3.0137,-3.0171,-3.0177,-3.0105,-3.0105,-3.0105,0,0,-2.9622,-2.9655,-2.9678,-2.9736,-2.9765,-2.9805,-2.9798,-2.9839,-2.9869,-2.988,-2.9932,-2.9955,-2.9997,-3.0052,-3.0078,-3.0072,-3.0159,-3.0135,-3.0137,-3.0141,-3.0175,-3.0181,-3.0188,-3.0108,-3.0107,-3.0107,0,0,-2.9663,-2.969,-2.9731,-2.976,-2.9804,-2.9825,-2.9834,-2.9879,-2.9895,-2.9948,-2.9958,-2.9994,-3.0062,-3.0092,-3.0116,-3.0169,-3.0175,-3.0181,-3.0202,-3.0235,-3.024,-3.0245,-3.0267,-3.0274,-3.0186,-3.0186,-3.0186,0,-2.967,-2.973,-2.9752,-2.9794,-2.982,-2.9832,-2.9875,-2.9901,-2.9955,-2.9974,-2.9966,-3.0054,-3.0082,-3.0146,-3.0159,-3.0178,-3.0191,-3.0177,-3.0238,-3.0243,-3.0248,-3.0269,-3.0277,-3.0187,-3.0187,-3.0187,-3.0187,0,-2.9739,-2.978,-2.9808,-2.9861,-2.9891,-2.9932,-2.9961,-2.9988,-2.9999,-3.0021,-3.0076,-3.0111,-3.0159,-3.0174,-3.0185,-3.0241,-3.0236,-3.0233,-3.0219,-3.0255,-3.0275,-3.0283,-3.0188,-3.0188,-3.0187,-3.0187,0,0,-2.9777,-2.9842,-2.9852,-2.9878,-2.9927,-2.996,-3.0003,-3.005,-3.0074,-3.011,-3.0149,-3.0207,-3.0205,-3.0233,-3.0247,-3.0275,-3.0318,-3.0269,-3.027,-3.0279,-3.0385,-3.0388,-3.0397,-3.0322,-3.0323,-3.0325,-3.0382,0,-2.9825,-2.9902,-2.9924,-2.999,-3.003,-3.0042,-3.008,-3.0115,-3.0137,-3.0175,-3.0199,-3.0241,-3.0234,-3.0251,-3.028,-3.0307,-3.034,-3.0303,-3.0359,-3.0361,-3.035,-3.0407,-3.041,-3.0462,-3.0389,-3.0391,-3.0392,0,-2.989,-2.993,-3.0,-3.0047,-3.0064,-3.0098,-3.0144,-3.0179,-3.0219,-3.0234,-3.0265,-3.0277,-3.0324,-3.0307,-3.0373,-3.0347,-3.0372,-3.0388,-3.0391,-3.0399,-3.038,-3.0418,-3.0479,-3.0488,-3.0404,-3.0403,-3.0402,0,-2.9914,-2.9984,-3.0036,-3.0057,-3.0112,-3.0136,-3.016,-3.0199,-3.0227,-3.0267,-3.0285,-3.033,-3.0355,-3.039,-3.0414,-3.0399,-3.0479,-3.0463,-3.0493,-3.0493,-3.051,-3.0509,-3.0579,-3.0523,-3.0522,-3.0522,-3.0522,0,-2.9966,-3.0009,-3.0048,-3.008,-3.013,-3.0154,-3.0202,-3.0226,-3.0262,-3.03,-3.0312,-3.0348,-3.0377,-3.0416,-3.0435,-3.0488,-3.0499,-3.0513,-3.0518,-3.0513,-3.0511,-3.053,-3.0528,-3.0524,-3.0524,-3.0524,-3.0523,0,-3.0001,-3.0029,-3.0087,-3.0134,-3.0147,-3.0182,-3.0223,-3.0255,-3.0278,-3.0326,-3.0338,-3.0375,-3.0422,-3.0449,-3.0509,-3.0522,-3.0582,-3.0584,-3.0568,-3.0571,-3.06,-3.0598,-3.0686,-3.07,-3.0632,-3.0632,-3.0633,0,-3.0033,-3.0067,-3.0119,-3.0145,-3.017,-3.0212,-3.0241,-3.0266,-3.0296,-3.0346,-3.0372,-3.0421,-3.0461,-3.0536,-3.0568,-3.0614,-3.0619,-3.0647,-3.0626,-3.0621,-3.0622,-3.0621,-3.0625,-3.0651,-3.0651,-3.0652,-3.0652,0,-3.0088,-3.0101,-3.0142,-3.0188,-3.0223,-3.026,-3.0298,-3.0319,-3.035,-3.0383,-3.0432,-3.0464,-3.0525,-3.0574,-3.0623,-3.0648,-3.0657,-3.0658,-3.0668,-3.0664,-3.0655,-3.0663,-3.058,-3.0656,-3.0656,-3.0656,-3.0656,-3.0655,-3.0124,-3.0156,-3.0198,-3.0244,-3.0275,-3.031,-3.0344,-3.0371,-3.0413,-3.0466,-3.0478,-3.053,-3.0572,-3.0639,-3.0665,-3.0707,-3.0702,-3.0716,-3.072,-3.0723,-3.0726,-3.0647,-3.0716,-3.0716,-3.0716,-3.0716,-3.0715,0,-3.0182,-3.021,-3.0252,-3.0305,-3.0342,-3.0346,-3.0388,-3.0418,-3.0464,-3.0502,-3.0542,-3.06,-3.0647,-3.0684,-3.0733,-3.0759,-3.0765,-3.0772,-3.0771,-3.0777,-3.0726,-3.0713,-3.0767,-3.0767,-3.0767,-3.0767,-3.0767,-3.0767,-3.0217,-3.0271,-3.0289,-3.036,-3.0387,-3.0439,-3.0463,-3.0497,-3.0527,-3.0591,-3.0631,-3.0654,-3.0692,-3.0745,-3.0789,-3.0799,-3.0817,-3.0824,-3.0834,-3.0786,-3.078,-3.0775,-3.0764,-3.0827,-3.0827,-3.0883,-3.0883,-3.0884]}]]